Volver al catálogo

STARLINK-3850

ActivoComunicacionesVLEO
NORAD 52342·PAYLOAD·🇺🇸 United States

Lanzado Apr 29, 2022 desde Cape Canaveral Space Force Station

Loading…

Próximos Pases (próximas 24 horas)

TLE

ActualizadoSource: CelesTrak SupGP

Época: Sep 14, 2026, 20:36 UTC

1 52342C 22045M   26257.85881944  .00039850  00000+0  11769-2 0  2575
2 52342  53.1593  61.8770 0001326  74.7035 284.3664 15.34383118    12

Sigue STARLINK-3850 en tiempo real con AllMySat

Download on the App Store